This is the latest recevied weather packets stored in our database for station/object OK2ZA-6. If no packets are shown the sender has not sent any weather packets the latest 10 day(s).
| Time | Temp. | Humidity | Pressure | Rain* | Wind** | Luminosity | Snow |
|---|---|---|---|---|---|---|---|
| 1788010804 | 23.33° C | 49% | 1016.5 hPa | 0 mm | - | - | - |
| 1788010214 | 23.33° C | 49% | 1016.6 hPa | 0 mm | - | - | - |
| 1788009604 | 23.89° C | 49% | 1016.5 hPa | 0 mm | - | - | - |
| 1788009004 | 23.89° C | 48% | 1016.6 hPa | 0 mm | - | - | - |
| 1788008404 | 24.44° C | 48% | 1016.7 hPa | 0 mm | - | - | - |
| 1788007804 | 24.44° C | 49% | 1016.7 hPa | 0 mm | - | - | - |
| 1788007204 | 24.44° C | 49% | 1016.7 hPa | 0 mm | - | - | - |
| 1788006604 | 23.89° C | 49% | 1016.6 hPa | 0 mm | - | - | - |
| 1788006004 | 23.89° C | 49% | 1016.7 hPa | 0 mm | - | - | - |
| 1788005404 | 23.89° C | 49% | 1016.7 hPa | 0 mm | - | - | - |
| 1788004804 | 23.89° C | 50% | 1016.7 hPa | 0 mm | - | - | - |
| 1788004205 | 24.44° C | 49% | 1016.7 hPa | 0 mm | - | - | - |
| 1788003604 | 23.89° C | 52% | 1016.8 hPa | 0 mm | - | - | - |
| 1788003005 | 23.33° C | 53% | 1016.9 hPa | 0 mm | - | - | - |
| 1788002405 | 22.78° C | 56% | 1017 hPa | 0 mm | - | - | - |
| 1788001804 | 22.78° C | 55% | 1017 hPa | 0 mm | - | - | - |
| 1788001204 | 22.78° C | 57% | 1017.2 hPa | 0 mm | - | - | - |
| 1788000604 | 22.22° C | 58% | 1017.2 hPa | 0 mm | - | - | - |
| 1788000004 | 22.22° C | 58% | 1017.4 hPa | 0 mm | - | - | - |
| 1787999404 | 22.78° C | 55% | 1017.2 hPa | 0 mm | - | - | - |
| 1787998804 | 22.22° C | 56% | 1017.1 hPa | 0 mm | - | - | - |
| 1787998218 | 22.78° C | 56% | 1017.2 hPa | 0 mm | - | - | - |
| 1787997604 | 21.67° C | 59% | 1017.2 hPa | 0 mm | - | - | - |
| 1787997004 | 22.22° C | 58% | 1017.3 hPa | 0 mm | - | - | - |
| 1787996404 | 21.67° C | 61% | 1017.4 hPa | 0 mm | - | - | - |
* Rain latest hour (hover to see other rain measurements)
** Current wind speed in m/s (hover to see current wind gust speed)